Dewpoint
63 65 66 67 68 68 68 67 67 67 69 68 66 67 68 69 71 72 72 72 72 72 72 71 71 71 71 70 71 71 70 69 68 68 66 66 65 66 66 68 67 68 68
62 64 65 67 67 67 68 68 68 68 69 69 69 69 69 70 71 71 72 72 72 71 71 71 71 71 71 71 71 71 70 69 69 68 65 63 63 64 63 65 65 66 67
62 63 64 66 66 66 67 68 68 69 69 70 70 70 71 71 71 71 72 72 72 71 71 71 71 72 72 70 71 72 71 70 70 69 67 64 62 63 64 67 68 68 67
62 63 63 65 64 66 67 68 68 69 69 71 70 69 69 69 70 69 71 72 72 72 71 72 71 73 72 72 72 73 72 71 70 70 68 68 67 64 62 69 70 71 68
60 61 63 64 64 65 66 68 68 68 70 71 70 69 69 70 70 71 71 72 72 72 72 72 72 72 72 72 73 72 72 73 71 70 69 69 64 66 65 66 67 71 69
61 62 64 64 63 64 66 68 68 68 69 70 69 69 68 69 70 70 70 71 72 72 71 72 72 72 71 71 73 72 72 73 72 73 70 69 68 68 69 65 67 67 68
63 62 62 62 62 65 67 68 68 68 70 70 69 69 69 69 69 70 70 70 71 72 72 72 72 72 72 71 73 73 72 73 71 72 71 71 71 70 68 68 68 68 67
64 63 64 63 63 66 67 68 68 68 70 70 70 69 68 69 70 70 71 71 71 72 72 72 72 72 72 72 73 72 72 73 72 72 72 71 71 71 67 65 67 68 69
64 64 65 67 64 65 67 68 68 68 69 70 71 69 68 67 69 70 71 71 72 71 72 72 73 73 73 72 73 72 72 72 72 72 71 71 72 72 71 70 69 68 65
64 65 66 68 67 66 67 69 69 68 70 70 71 70 69 69 70 70 70 71 72 72 72 72 72 73 73 73 73 72 72 72 72 71 72 72 72 72 71 71 70 69 67
64 64 66 68 68 68 69 70 69 68 69 70 70 70 71 71 70 69 69 70 72 71 71 71 72 72 72 72 72 72 72 72 72 72 72 71 72 73 73 72 71 71 70
63 65 66 67 67 67 67 66 66 67 67 68 68 68 69 70 71 71 70 70 71 71 71 71 71 72 72 72 72 72 72 72 71 71 71 71 71 72 72 71 72 71 71
63 64 65 66 66 66 66 65 67 67 67 68 68 68 68 69 70 71 72 72 72 71 70 69 69 70 71 71 72 72 72 72 71 71 71 71 71 72 71 71 70 70 71
61 62 64 65 66 65 66 67 67 67 67 67 67 66 67 68 69 71 72 72 72 71 71 69 68 69 69 69 71 72 72 72 71 72 72 72 72 72 72 71 72 72 71
59 60 61 63 64 64 65 66 66 65 66 67 67 66 67 68 68 69 69 70 71 72 71 71 70 69 68 67 69 71 72 72 72 72 72 72 72 70 71 72 74 73 72
56 57 59 61 63 64 64 64 63 63 65 64 63 64 65 66 67 67 67 68 69 69 70 70 71 72 71 64 66 69 72 72 72 71 72 72 71 71 67 67 67 71 73
52 54 58 60 61 61 62 61 62 62 60 59 59 60 63 63 64 64 66 67 67 67 67 68 68 69 69 62 63 66 71 71 72 72 72 71 70 71 72 69 66 66 65
53 54 57 58 57 57 57 57 58 57 54 54 54 56 57 58 61 63 63 63 64 64 65 66 67 67 68 62 61 63 70 70 70 70 70 70 71 71 71 71 71 71 72
49 52 54 54 53 53 54 54 56 55 52 51 53 54 55 55 56 57 60 61 63 64 64 65 66 67 68 62 60 64 69 69 70 71 71 71 71 61 61 70 70 71 71
49 51 51 50 52 53 51 50 49 49 50 50 51 51 53 53 54 54 56 57 60 62 63 63 63 63 67 58 59 62 68 68 69 70 70 60 63 57 57 67 68 68 69
48 49 49 49 48 47 47 46 47 47 48 49 50 50 51 51 52 53 53 53 54 55 56 59 61 62 62 62 56 57 65 66 66 67 67 68 60 57 55 55 63 66 66
47 48 48 47 47 47 46 46 46 47 49 49 49 49 50 49 48 50 50 50 51 51 52 52 50 53 56 56 56 54 55 58 61 61 63 64 54 51 52 55 56 56 57
47 48 46 46 46 47 46 46 47 47 47 47 47 48 49 48 49 48 49 47 48 47 48 48 48 48 50 51 51 51 51 55 59 58 57 54 53 53 55 55 55 56 64
46 45 45 45 45 46 46 46 47 47 45 45 46 46 46 46 46 46 47 46 46 46 46 47 47 47 49 49 48 47 49 52 54 55 55 56 55 54 55 58 60 63 64
45 45 44 44 44 45 44 45 45 45 44 44 44 44 44 45 44 45 45 45 46 45 46 46 46 47 47 46 44 44 46 47 48 50 56 56 55 55 56 58 60 62 64
46 45 44 45 44 44 44 45 44 44 43 43 42 43 43 43 42 42 42 44 43 43 42 42 44 46 45 43 42 41 40 42 46 53 54 52 52 53 54 57 60 60 57
Lifted_Index
-1 -2 -2 -2 -2 -2 -2 -2 -2 -1 -1 -1 -1 -1 -2 -2 -2 -3 -3 -3 -4 -3 -3 -3 -3 -3 -3 -4 -4 -4 -4 -4 -4 -4 -4 -4 -4 -4 -4 -4 -5 -5 -4
-1 -2 -2 -2 -2 -2 -2 -1 -1 -2 -2 -1 -1 -1 -2 -2 -2 -3 -3 -3 -3 -3 -3 -3 -3 -3 -3 -3 -4 -4 -4 -5 -5 -5 -4 -4 -4 -4 -4 -4 -5 -5 -5
-1 -2 -2 -2 -2 -2 -1 -1 -2 -2 -2 -2 -2 -2 -2 -3 -3 -3 -3 -3 -3 -3 -3 -3 -3 -3 -3 -3 -4 -4 -5 -5 -5 -5 -5 -5 -4 -4 -4 -4 -5 -5 -5
-1 -2 -2 -2 -2 -1 -1 -2 -2 -2 -2 -2 -2 -3 -3 -3 -3 -3 -3 -3 -3 -3 -3 -3 -3 -3 -3 -3 -4 -4 -5 -5 -5 -5 -6 -6 -5 -5 -4 -5 -5 -5 -6
-1 -1 -2 -2 -2 -2 -2 -2 -2 -2 -3 -3 -3 -3 -3 -3 -3 -3 -3 -3 -4 -4 -4 -3 -3 -4 -4 -4 -4 -4 -4 -5 -5 -5 -6 -6 -6 -5 -5 -5 -6 -6 -6
-1 -1 -1 -1 -1 -2 -2 -2 -2 -2 -3 -3 -3 -3 -3 -3 -3 -3 -3 -3 -4 -4 -4 -4 -4 -4 -4 -4 -4 -4 -4 -5 -5 -5 -5 -6 -6 -6 -5 -5 -6 -6 -6
-0 -1 -1 -1 -1 -1 -2 -2 -2 -2 -3 -3 -3 -3 -3 -3 -3 -3 -3 -3 -3 -3 -4 -4 -4 -4 -4 -4 -4 -4 -4 -4 -4 -5 -5 -5 -6 -6 -5 -5 -5 -5 -5
-0 -0 -1 -1 -1 -1 -2 -2 -2 -2 -3 -3 -3 -3 -3 -3 -3 -3 -3 -3 -3 -3 -3 -4 -4 -4 -3 -4 -4 -4 -4 -4 -4 -4 -4 -5 -5 -6 -6 -5 -5 -5 -4
-1 -1 -1 -1 -1 -1 -2 -2 -2 -2 -3 -3 -3 -3 -3 -3 -2 -2 -3 -3 -3 -3 -3 -4 -4 -3 -3 -4 -4 -4 -4 -4 -4 -4 -4 -4 -5 -5 -5 -5 -5 -4 -4
-2 -1 -1 -1 -1 -1 -1 -2 -2 -2 -2 -3 -3 -3 -3 -3 -2 -2 -3 -3 -3 -3 -3 -3 -3 -4 -4 -4 -4 -4 -4 -4 -4 -4 -4 -4 -4 -4 -4 -4 -4 -4 -4
-2 -2 -1 -1 -1 -1 -2 -2 -2 -2 -2 -3 -3 -4 -3 -3 -3 -3 -3 -3 -3 -3 -3 -3 -3 -3 -4 -4 -4 -4 -4 -4 -4 -4 -4 -4 -4 -4 -4 -4 -4 -4 -4
-1 -2 -2 -2 -1 -1 -1 -2 -2 -2 -2 -3 -3 -3 -3 -3 -3 -3 -3 -3 -3 -3 -3 -3 -3 -3 -3 -3 -3 -4 -4 -4 -4 -4 -4 -3 -3 -3 -3 -4 -4 -4 -4
-0 -1 -1 -1 -1 -1 -1 -1 -1 -1 -1 -2 -2 -2 -2 -2 -3 -3 -3 -4 -4 -4 -3 -3 -3 -3 -3 -3 -3 -3 -4 -4 -3 -3 -3 -3 -3 -3 -3 -4 -4 -4 -4
-1 -0 -1 -1 -1 -0 -0 -1 -1 -1 -1 -1 -1 -1 -1 -1 -2 -3 -3 -4 -4 -4 -3 -3 -3 -3 -3 -3 -3 -3 -3 -3 -3 -3 -3 -3 -3 -3 -4 -4 -4 -4 -4
-1 -1 -1 -1 -1 -0 -0 -0 -1 -0 -0 0 0 -0 -1 -1 -2 -3 -3 -3 -4 -4 -4 -4 -4 -4 -3 -3 -3 -3 -3 -4 -4 -3 -3 -3 -3 -3 -4 -4 -4 -4 -4
-1 -1 -1 -1 -1 -0 -0 -0 -0 0 1 1 1 0 -1 -2 -2 -2 -2 -3 -3 -3 -3 -3 -4 -4 -4 -4 -3 -4 -4 -4 -4 -4 -4 -4 -3 -3 -3 -3 -3 -3 -4
-1 -1 -2 -2 -1 -1 -1 -1 -0 0 1 1 0 -0 -1 -2 -1 -1 -1 -1 -2 -2 -2 -3 -3 -3 -3 -3 -4 -4 -4 -4 -4 -4 -4 -4 -3 -3 -3 -3 -3 -3 -3
-1 -1 -2 -2 -2 -1 -1 -1 -1 -0 0 -0 -1 -1 -1 -1 -1 -0 0 0 -0 -0 -1 -2 -2 -2 -2 -2 -3 -3 -3 -4 -4 -4 -4 -4 -3 -3 -3 -3 -3 -3 -3
-1 -1 -1 -1 -1 -1 -1 -1 -1 -1 -1 -1 -1 -1 0 -0 0 1 1 1 1 1 0 -0 -0 -1 -1 -1 -1 -2 -2 -2 -3 -3 -3 -3 -3 -3 -3 -3 -3 -3 -3
0 0 0 -0 0 1 1 1 0 0 1 1 2 3 3 3 3 3 2 2 2 1 1 1 1 1 1 0 0 -0 -1 -1 -1 -1 -2 -2 -2 -2 -2 -2 -2 -2 -2
2 2 2 2 3 4 4 4 4 4 5 6 7 8 8 8 7 6 6 5 5 4 3 3 3 2 2 2 2 2 1 0 0 0 -0 -1 -1 -1 -1 -1 -1 -1 -1
2 3 4 4 6 7 7 7 8 9 10 11 11 11 11 11 10 10 9 9 9 8 7 6 5 4 4 4 5 4 4 3 3 3 3 3 2 1 1 1 1 0 0
2 3 4 5 7 8 9 10 11 12 13 13 13 13 12 12 12 12 11 11 11 11 10 9 8 7 6 6 6 6 6 6 6 7 7 6 6 5 5 4 4 3 2
2 3 4 5 6 8 9 11 12 13 14 14 14 13 13 13 13 13 13 13 13 12 12 11 11 10 9 8 8 8 8 8 8 8 8 8 8 8 7 7 6 5 4
3 4 4 5 6 8 10 12 13 14 14 14 14 14 14 14 14 14 14 14 14 14 14 13 13 13 12 11 11 10 10 9 9 9 9 9 9 9 9 8 6 6 6
3 4 4 5 7 9 11 12 13 14 14 14 15 15 15 15 15 15 15 15 15 15 14 14 14 14 14 13 13 12 11 11 10 10 10 10 10 10 9 8 7 6 7